{"data":{"norad_id":59071,"intl_designator":"2024-039U","name":"SITRO-AIS 28","alt_names":[],"object_type":"PAYLOAD","status":"ACTIVE","operator":null,"country":"CIS","launch_date":"2024-02-29","launch_site_code":"VOSTO","launch_vehicle":null,"mission":null,"orbit_class":"UNKNOWN","rcs_meters":null,"size_class":null,"mass_kg":null,"dimensions":null,"purposes":["tech_demo"],"wikipedia_slug":null,"has_3d_model":false,"image_url":null,"decayed_at":null,"tle_current":{"epoch":"2026-05-25T05:07:17.129280Z","epoch_age_seconds":59913,"freshness":"FRESH","line1":"1 59071U 24039U   26145.21339270  .00004314  00000+0  33397-3 0  9994","line2":"2 59071  95.3920 219.5164 0145890  48.1584 313.1988 14.93590519121314","mean_motion":14.93590519,"eccentricity":0.014589,"inclination_deg":95.392,"raan_deg":219.5164,"arg_perigee_deg":48.1584,"mean_anomaly_deg":313.1988,"bstar":0.00033397,"rev_number":12131,"period_min":96.411967114261,"perigee_km":485.14033571888,"apogee_km":688.36184035157,"semimajor_km":6964.8880880352,"source":"CELESTRAK","updated_at":"2026-05-25T13:38:25.535141Z"}}}